Weather History for Needles, CA

Change the Weather History Date:

Wednesday, July 31, 2013

  Actual Average Record
Temperature  
Mean Temperature 99 °F -  
Max Temperature 111 °F 109 °F 117 °F (1969)
Min Temperature 87 °F 84 °F 73 °F (1980)
Cooling Degree Days 34    
Growing Degree Days 49 (Base 50)    
Moisture  
Dew Point 49 °F    
Average Humidity 18    
Maximum Humidity 28    
Minimum Humidity 12    
Precipitation  
Precipitation 0.00 in - - ()
Sea Level Pressure  
Sea Level Pressure 29.78 in    
Wind  
Wind Speed 8 mph (SW)    
Max Wind Speed 17 mph    
Max Gust Speed 25 mph    
Visibility 10 miles    
Events      
Averages and records for this station are not official NWS values.
T = Trace of Precipitation, MM = Missing Value Source: NWS Daily Summary

Daily Weather History Graph

Daily Weather History Graph

Search for Another Location

Airport:

Trip Planner

Search our weather history database for the weather conditions in past years. The results will help you decide how hot, cold, wet, or windy it might be!

Date:

Astronomy

Jul. 31, 2013 Rise Set
Actual Time 5:47 AM PDT 7:41 PM PDT
Civil Twilight 5:20 AM PDT 8:09 PM PDT
Nautical Twilight 4:46 AM PDT 8:42 PM PDT
Astronomical Twilight 4:10 AM PDT 9:18 PM PDT
Moon 12:45 AM PDT (7/31) 3:00 PM PDT (7/31)
Length of Visible Light 14h 48m
Length of Day
13h 53m
Waning Crescent, 31% of the Moon is Illuminated
Jul 31
Waning Crescent
Aug 6
New
Aug 14
First Quarter
Aug 20
Full
Aug 28
Last Quarter

Hourly Weather History & Observations

Time (PDT) Temp. Dew Point Humidity Pressure Visibility Wind Dir Wind Speed Gust Speed Precip Events Conditions
12:56 AM 95.0 °F 48.0 °F 20% 29.82 in 10.0 mi SW 8.1 mph - N/A   Clear
1:56 AM 91.9 °F 48.9 °F 23% 29.81 in 10.0 mi West 8.1 mph - N/A   Clear
2:56 AM 90.0 °F 48.9 °F 24% 29.81 in 10.0 mi WSW 9.2 mph - N/A   Clear
3:56 AM 91.0 °F 48.9 °F 23% 29.81 in 10.0 mi WSW 4.6 mph - N/A   Clear
4:56 AM 88.0 °F 48.9 °F 26% 29.82 in 10.0 mi Calm Calm - N/A   Clear
5:56 AM 87.1 °F 50.0 °F 28% 29.84 in 10.0 mi NW 4.6 mph - N/A   Clear
6:56 AM 88.0 °F 51.1 °F 28% 29.86 in 10.0 mi NNW 4.6 mph - N/A   Clear
7:56 AM 91.9 °F 51.1 °F 25% 29.86 in 10.0 mi Calm Calm - N/A   Clear
8:56 AM 97.0 °F 50.0 °F 20% 29.87 in 10.0 mi Calm Calm - N/A   Partly Cloudy
9:56 AM 100.0 °F 50.0 °F 18% 29.86 in 10.0 mi ENE 3.5 mph - N/A   Clear
10:56 AM 104.0 °F 50.0 °F 16% 29.84 in 10.0 mi ENE 6.9 mph - N/A   Partly Cloudy
11:56 AM 107.1 °F 48.9 °F 14% 29.82 in 10.0 mi East 6.9 mph - N/A   Partly Cloudy
12:56 PM 109.9 °F 46.0 °F 12% 29.80 in 10.0 mi SSW 6.9 mph - N/A   Clear
1:56 PM 109.0 °F 48.9 °F 14% 29.77 in 10.0 mi SW 16.1 mph 20.7 mph N/A   Mostly Cloudy
2:56 PM 111.0 °F 52.0 °F 14% 29.75 in 10.0 mi SSW 15.0 mph 23.0 mph N/A   Scattered Clouds
3:56 PM 111.0 °F 51.1 °F 14% 29.72 in 10.0 mi SSW 17.3 mph 25.3 mph N/A   Mostly Cloudy
4:56 PM 111.0 °F 50.0 °F 13% 29.70 in 10.0 mi SSW 17.3 mph 23.0 mph N/A   Mostly Cloudy
5:56 PM 109.9 °F 50.0 °F 14% 29.68 in 10.0 mi SSW 16.1 mph 20.7 mph N/A   Partly Cloudy
6:56 PM 108.0 °F 48.9 °F 14% 29.68 in 10.0 mi South 11.5 mph - N/A   Mostly Cloudy
7:56 PM 106.0 °F 48.9 °F 15% 29.69 in 10.0 mi SSW 11.5 mph - N/A   Mostly Cloudy
8:56 PM 104.0 °F 50.0 °F 16% 29.70 in 10.0 mi SSW 10.4 mph - N/A   Mostly Cloudy
10:56 PM 100.0 °F 45.0 °F 15% 29.71 in 10.0 mi West 8.1 mph - N/A   Partly Cloudy
11:56 PM 98.1 °F 42.1 °F 15% 29.72 in 10.0 mi WSW 6.9 mph - N/A   Unknown